Home   Weather   Saint-Denis   Past weeks

Flag for Réunion (French) Past Weather in Saint-Denis, Réunion (French) — Yesterday and Last 2 Weeks

Now
72 °F

Scattered clouds.


Feels Like: 75 °F
Forecast: 68 / 76 °F
Wind: 7 mph from South

Location: Saint-Denis / Gillot

Current Time: Sep 25, 2016 at 7:54:16 AM

Latest Report: Sep 25, 2016 at 7:00 AM


Visibility: N/A

Pressure: 30.07 "Hg

Humidity: 69%

Dew Point: 61 °F

Location of Saint-DenisLocation

Past Weather in Saint-Denis — Graph

°F

Saint-Denis Temperature Yesterday

Maximum temperature yesterday: 79 °F (at 12:30 PM)
Minimum temperature yesterday: 68 °F (at 5:00 AM)
Average temperature yesterday: 72 °F

High & Low Weather Summary for the Past Weeks

 TemperatureHumidityPressure
High81 °F (Sep 10, 3:00 PM)88% (Sep 13, 12:00 AM)30.27 "Hg (Sep 13, 12:00 AM)
Low61 °F (Sep 14, 2:00 AM)42% (Sep 17, 12:00 PM)30.04 "Hg (Sep 24, 1:30 PM)
Average71 °F66%30.15 "Hg
* Reported Sep 10 6:00 AM — Sep 25 6:30 AM, Saint-Denis, Weather by CustomWeather, © 2016

Note: Actual official high and low records may vary slightly from our data, if they occured in-between our weather recording intervals... More about our weather records

Advertising

Saint-Denis Weather History for the Previous 24 Hours

Scroll right to see more
 ConditionsComfort  
Time TempWeatherWind HumidityBarometerVisibility
6:30 AM
Sun, Sep 25
70 °FScattered clouds.3 mph69%30.07 "HgN/A
5:50 AM70 °FPassing clouds.9 mph69%30.07 "HgN/A
5:30 AM70 °FPassing clouds.10 mph73%30.07 "HgN/A
5:00 AM68 °FPassing clouds.8 mph73%30.07 "HgN/A
4:30 AM68 °FPassing clouds.2 mph69%30.04 "HgN/A
4:00 AM68 °FPassing clouds.6 mph69%30.04 "HgN/A
3:30 AM68 °FMild.8 mph69%30.07 "HgN/A
3:00 AM68 °FPassing clouds.8 mph73%30.07 "HgN/A
2:30 AM68 °FMild.9 mph73%30.07 "HgN/A
2:00 AM70 °FMild.12 mph73%30.07 "HgN/A
1:30 AM68 °FClear.12 mph83%30.09 "HgN/A
1:00 AM70 °FPassing clouds.10 mph78%30.09 "HgN/A
12:30 AM70 °FClear.9 mph78%30.09 "HgN/A
12:00 AM70 °FClear.9 mph78%30.09 "HgN/A
11:30 PM
Sat, Sep 24
70 °FClear.10 mph78%30.12 "HgN/A
11:00 PM70 °FClear.9 mph83%30.12 "HgN/A
10:30 PM70 °FClear.8 mph78%30.12 "HgN/A
10:00 PM70 °FClear.10 mph78%30.12 "HgN/A
9:30 PM70 °FClear.12 mph78%30.12 "HgN/A
9:00 PM70 °FClear.12 mph78%30.12 "HgN/A
8:30 PM70 °FClear.13 mph78%30.09 "HgN/A
8:00 PM70 °FClear.12 mph83%30.09 "HgN/A
7:30 PM70 °FClear.12 mph78%30.09 "HgN/A
7:00 PM72 °FClear.10 mph73%30.09 "HgN/A
6:30 PM73 °FPassing clouds.12 mph69%30.07 "HgN/A
6:00 PM73 °FPassing clouds.16 mph69%30.07 "HgN/A
5:30 PM75 °FPassing clouds.17 mph65%30.07 "HgN/A
5:00 PM77 °FPassing clouds.20 mph65%30.07 "HgN/A
4:30 PM77 °FPassing clouds.21 mph65%30.04 "HgN/A
4:07 PM77 °FPassing clouds.22 mph65%30.04 "HgN/A
3:30 PM77 °FPassing clouds.23 mph65%30.04 "HgN/A
3:00 PM79 °FPassing clouds.24 mph61%30.04 "HgN/A
2:30 PM77 °FPassing clouds.24 mph65%30.04 "HgN/A
2:00 PM77 °FPassing clouds.24 mph65%30.04 "HgN/A
1:30 PM79 °FPassing clouds.25 mph58%30.04 "HgN/A
1:00 PM79 °FPassing clouds.23 mph61%30.07 "HgN/A
12:30 PM79 °FScattered clouds.21 mph58%30.07 "HgN/A
12:06 PM77 °FScattered clouds.21 mph65%30.07 "HgN/A
11:30 AM77 °FScattered clouds.17 mph61%30.09 "HgN/A
11:00 AM73 °FScattered clouds.17 mph74%30.12 "HgN/A
10:30 AM72 °FScattered clouds.12 mph83%30.12 "HgN/A
10:00 AM72 °FScattered clouds.13 mph78%30.12 "HgN/A
9:30 AM72 °FScattered clouds.12 mph78%30.15 "HgN/A
9:00 AM72 °FScattered clouds.12 mph73%30.15 "HgN/A
8:30 AM72 °FScattered clouds.12 mph78%30.15 "HgN/A
8:00 AM72 °FScattered clouds.14 mph73%30.12 "HgN/A
7:30 AM70 °FScattered clouds.15 mph78%30.12 "HgN/A
7:00 AM70 °FScattered clouds.10 mph78%30.12 "HgN/A
Weather by CustomWeather, © 2016

See weather overviewHow to use our weather pages